Regional Weather Roundup
Issued by NWS

Home | Current Version | Previous Version | Graphics & Text | Print | Product List | Glossary On
Versions: 1 2 3 4 5 6 7 8 9 10 11 12 13 14 15 16 17 18 19 20 21 22 23 24 25 26 27 28 29 30 31 32 33 34 35 36 37 38 39 40 41 42 43 44 45 46 47 48 49 50
000
ASUS43 KLMK 251210
RWRKY
KENTUCKY REGIONAL WEATHER ROUNDUP
NATIONAL WEATHER SERVICE LOUISVILLE KY
800 AM EDT WED MAY 25 2016

NOTE "FAIR" INDICATES FEW OR NO CLOUDS BELOW 12,000 FEET
WITH NO SIGNIFICANT WEATHER AND/OR OBSTRUCTIONS TO VISIBILITY.

KYZ001>023-026-027-061>063-070>075-251300-
WESTERN AND SOUTH CENTRAL KENTUCKY

CITY           SKY/WX    TMP DP  RH WIND       PRES   REMARKS
PADUCAH        CLOUDY    66  63  90 CALM      30.07R
HENDERSON      CLOUDY    64  61  88 CALM      30.08R
OWENSBORO      CLOUDY    69  62  78 SE9       30.09R
HOPKINSVILLE   CLOUDY    69  64  83 S9        30.11R
BOWLING GREEN  LGT RAIN  70  59  68 SW5       30.13R
GLASGOW        CLOUDY    67  56  68 CALM      30.14R
$$

KYZ024-025-028>034-038-045-046-053-251300-
NORTH CENTRAL KENTUCKY

CITY           SKY/WX    TMP DP  RH WIND       PRES   REMARKS
LOUISVILLE/SDF LGT RAIN  68  59  73 SE7       30.10R
LOUISVILLE/LOU CLOUDY    69  56  62 S5        30.12R
FORT KNOX      NOT AVBL
$$

KYZ035>037-039>044-047>052-055>060-089>105-251300-
NORTHEAST KENTUCKY

CITY           SKY/WX    TMP DP  RH WIND       PRES   REMARKS
LEXINGTON      CLOUDY    65  51  60 S9        30.15R
COVINGTON      PTSUNNY   68  54  60 S7        30.12R
FRANKFORT      CLOUDY    66  52  60 S6        30.13R
$$

KYZ054-064>069-076>088-106>120-251300-
SOUTHEAST KENTUCKY

CITY           SKY/WX    TMP DP  RH WIND       PRES   REMARKS
JACKSON        SUNNY     63  49  60 S3        30.19R
LONDON         SUNNY     61  51  70 SE3       30.19R
SOMERSET       MOSUNNY   63  55  77 CALM      30.18S
MIDDLESBORO    SUNNY     54  52  93 CALM      30.24R
MONTICELLO     CLOUDY    64  57  78 NE6       30.19R
$$





USA.gov is the U.S. government's official web portal to all federal, state and local government web resources and services.